Almeria, Spain

1:26 PM CEST en Julio 21, 2018 (GMT +0200)
Almeria

Tiempo Historia de LEAM - Enero, 2018

Change the Weather History Date:

Domingo, Enero 14, 2018

  Actual Average Record
Temperature  
Temperatura media 51 ° F -  
Temperatura máxima 60 ° F 59 ° F 65 ° F (2014)
Temperatura mínima 42 ° F 46 ° F 37 ° F (2003)
Degree Days  
Grados día de calefacción 14    
Growing Degree Days 1 (Base 50)    
Moisture  
Punto de rocío 41 ° F    
Average Humidity 67    
Maximum Humidity 87    
Minimum Humidity 36    
Precipitación  
Precipitación 0.02 pul 0.03 pul - ()
Presión al nivel del mar  
Presión al nivel del mar 30.07 pul    
Viento  
Velocidad del viento 4 mph ()    
Velocidad máxima del viento 14 mph    
Max Gust Speed -    
Visibilidad 7.0 Millas    
Eventos Lluvia    
Averages and records for this station are not official NWS values.
T = Trace of Precipitation, MM = Missing Value Source: Averaged Metar Reports

Daily Weather History Graph

Daily Weather History Graph

Search for Another Location

Airport or City:

Astronomía

Jan. 14, 2018 Salida Puesta
Hora real 8:21 AM CET 6:15 PM CET
Crepúsculo civil 7:53 AM CET 6:43 PM CET
Crepúsculo náutico 7:21 AM CET 7:15 PM CET
Crepúsculo astronómico 6:50 AM CET 7:47 PM CET
Luna 6:05 AM CET (1/14) 4:22 PM CET (1/14)
Horas de luz 10h 50m
Horas de luz
9h 53m
Creciente menguante, 6% of the Moon is Illuminated
Ene 14
Creciente menguante
Ene 17
Nueva
Ene 24
Cuarto creciente
Ene 31
Luna llena
Feb 7
Cuarto menguante

Hourly Weather History & Observations

Hora (CET) Temp. Vientos helados Punto de rocío Humedad Presión Visibilidad Wind Dir Velocidad del viento Velocidad de ráfagas Precip Eventos Condiciones
12:00 AM 50.0 ° F - 46.4 ° F 87% 30.09 pul 6.2 mi Variable 2.3 mph - N/A   Desconocido
12:30 AM 50.0 ° F - 44.6 ° F 82% 30.09 pul 6.2 mi NE 3.5 mph - N/A   Desconocido
1:00 AM 47 ° F - 44 ° F 83% 30.11 pul - Norte 1.2 mph - -  
1:00 AM 46.4 ° F - 42.8 ° F 87% 30.09 pul 6.2 mi Variable 1.2 mph - N/A   Desconocido
1:30 AM 46.4 ° F 44.3 ° F 41.0 ° F 81% 30.09 pul 6.2 mi NNO 4.6 mph - N/A   Desconocido
2:00 AM 46 ° F - 40 ° F 73% 30.09 pul - Oeste 2.3 mph - -  
2:00 AM 46.4 ° F - 41.0 ° F 81% 30.09 pul 6.2 mi Variable 2.3 mph - N/A   Desconocido
2:30 AM 46.4 ° F - 39.2 ° F 76% 30.06 pul 6.2 mi Variable 2.3 mph - N/A   Desconocido
3:00 AM 47 ° F - 37 ° F 60% 30.09 pul - NNE 2.3 mph - -  
3:00 AM 48.2 ° F - 37.4 ° F 66% 30.06 pul 6.2 mi Variable 1.2 mph - N/A   Desconocido
3:30 AM 48.2 ° F - 41.0 ° F 76% 30.06 pul 6.2 mi NE 5.8 mph - N/A   Desconocido
4:00 AM 49 ° F - 40 ° F 62% 30.09 pul - Este 3.5 mph - -  
4:00 AM 48.2 ° F - 39.2 ° F 71% 30.06 pul 6.2 mi ENE 3.5 mph - N/A   Desconocido
4:30 AM 51.8 ° F - 33.8 ° F 50% 30.06 pul 6.2 mi Variable 1.2 mph - N/A   Desconocido
5:00 AM 48 ° F - 34 ° F 48% 30.09 pul - Norte 6.9 mph - -  
5:00 AM 48.2 ° F - 33.8 ° F 58% 30.06 pul - Norte 4.6 mph - N/A   Despejado
5:30 AM 48.2 ° F - 33.8 ° F 58% 30.06 pul - Norte 6.9 mph - N/A   Despejado
6:00 AM 48 ° F - 34 ° F 46% 30.09 pul - NNO 8.1 mph - -  
6:00 AM 48.2 ° F - 33.8 ° F 58% 30.06 pul - NNO 6.9 mph - N/A   Despejado
6:30 AM 48.2 ° F - 33.8 ° F 58% 30.06 pul - NNO 8.1 mph - N/A   Despejado
7:00 AM 46 ° F - 33 ° F 50% 30.09 pul - NO 8.1 mph - -  
7:00 AM 46.4 ° F 42.4 ° F 33.8 ° F 62% 30.06 pul - NO 8.1 mph - N/A   Despejado
7:30 AM 46.4 ° F 44.3 ° F 33.8 ° F 62% 30.09 pul - Norte 4.6 mph - N/A   Despejado
8:00 AM 46.4 ° F 44.3 ° F 33.8 ° F 62% 30.09 pul - Norte 4.6 mph - N/A   Despejado
8:30 AM 42.8 ° F - 33.8 ° F 70% 30.09 pul - Variable 1.2 mph - N/A   Despejado
9:00 AM 44 ° F - 35 ° F 61% 30.10 pul - ENE 2.3 mph - -  
9:00 AM 44.6 ° F - 35.6 ° F 71% 30.09 pul 6.2 mi Variable 1.2 mph - N/A   Parcialmente nublado
9:30 AM 50.0 ° F - 35.6 ° F 58% 30.09 pul 6.2 mi Sin viento Sin viento - N/A   Parcialmente nublado
10:00 AM 53 ° F - 35 ° F 38% 30.12 pul 31 mi Norte 2.3 mph - -   Nubes dispersas
10:00 AM 53.6 ° F - 35.6 ° F 51% 30.09 pul 6.2 mi Variable 1.2 mph - N/A   Parcialmente nublado
10:30 AM 57.2 ° F - 35.6 ° F 44% 30.12 pul - Variable 2.3 mph - N/A   Despejado
11:00 AM 58 ° F - 42 ° F 43% 30.12 pul - NNE 1.2 mph - -  
11:00 AM 57.2 ° F - 39.2 ° F 51% 30.09 pul - Sin viento Sin viento - N/A   Despejado
11:30 AM 57.2 ° F - 37.4 ° F 48% 30.09 pul - Variable 2.3 mph - N/A   Despejado
12:00 PM 59 ° F - 39 ° F 36% 30.11 pul - Sur 3.5 mph - -  
12:00 PM 59.0 ° F - 39.2 ° F 48% 30.09 pul - Variable 2.3 mph - N/A   Despejado
12:30 PM 57.2 ° F - 41.0 ° F 55% 30.09 pul - SO 5.8 mph - N/A   Despejado
1:00 PM 58 ° F - 42 ° F 43% 30.08 pul 31 mi SSO 5.8 mph - -   Muy nublado
1:00 PM 57.2 ° F - 42.8 ° F 59% 30.06 pul - SSO 4.6 mph - N/A   Despejado
1:30 PM 57.2 ° F - 42.8 ° F 59% 30.06 pul - SSO 8.1 mph - N/A   Despejado
2:00 PM 57 ° F - 43 ° F 48% 30.06 pul - SO 8.1 mph - -  
2:00 PM 57.2 ° F - 42.8 ° F 59% 30.06 pul - SSO 6.9 mph - N/A   Despejado
2:30 PM 55.4 ° F - 44.6 ° F 67% 30.04 pul 6.2 mi SO 6.9 mph - N/A   Nubes dispersas
3:00 PM 57 ° F - 44 ° F 52% 30.04 pul - SO 6.9 mph - -  
3:00 PM 57.2 ° F - 44.6 ° F 63% 30.04 pul 6.2 mi SO 6.9 mph - N/A   Muy nublado
3:30 PM 55.4 ° F - 44.6 ° F 67% 30.04 pul 6.2 mi SO 5.8 mph - N/A   Muy nublado
4:00 PM 55 ° F - 46 ° F 62% 30.05 pul 19 mi OSO 12.7 mph - -   Nublado
4:00 PM 55.4 ° F - 44.6 ° F 67% 30.04 pul 6.2 mi OSO 12.7 mph - N/A   Muy nublado
4:30 PM 53.6 ° F - 46.4 ° F 77% 30.04 pul 6.2 mi OSO 12.7 mph - N/A   Muy nublado
5:00 PM 53 ° F - 47 ° F 73% 30.05 pul - OSO 11.5 mph - -   Precipitación desconocida
5:00 PM 51.8 ° F - 46.4 ° F 82% 30.04 pul 6.2 mi OSO 11.5 mph - N/A   Muy nublado
5:30 PM 51.8 ° F - 46.4 ° F 82% 30.04 pul 6.2 mi OSO 9.2 mph - N/A Lluvia Lluvia débil
6:00 PM 51 ° F - 45 ° F 74% 30.05 pul - OSO 10.4 mph - -   Precipitación desconocida
6:00 PM 51.8 ° F - 44.6 ° F 76% 30.04 pul 6.2 mi OSO 10.4 mph - N/A Lluvia Lluvia débil
6:30 PM 50.0 ° F - 46.4 ° F 87% 30.04 pul 6.2 mi OSO 3.5 mph - N/A Lluvia Lluvia débil
7:00 PM 51 ° F - 46 ° F 77% 30.06 pul 19 mi ONO 2.3 mph - - Lluvia Lluvia débil
7:00 PM 51.8 ° F - 46.4 ° F 82% 30.04 pul 6.2 mi Variable 1.2 mph - N/A Lluvia Lluvia débil
7:30 PM 51.8 ° F - 46.4 ° F 82% 30.06 pul 6.2 mi OSO 8.1 mph - N/A Lluvia Lluvia débil
8:00 PM 51 ° F - 46 ° F 77% 30.07 pul - Oeste 13.8 mph - -   Precipitación desconocida
8:00 PM 50.0 ° F - 46.4 ° F 87% 30.06 pul 6.2 mi Oeste 13.8 mph - N/A   Nubes dispersas
8:30 PM 50.0 ° F - 44.6 ° F 82% 30.06 pul 6.2 mi Variable 1.2 mph - N/A   Nubes dispersas
9:00 PM 49 ° F - 45 ° F 82% 30.08 pul - Sin viento Sin viento - -  
9:00 PM 50.0 ° F - 46.4 ° F 87% 30.06 pul 6.2 mi Sin viento Sin viento - N/A   Parcialmente nublado
9:30 PM 50.0 ° F - 46.4 ° F 87% 30.09 pul 6.2 mi Oeste 3.5 mph - N/A   Muy nublado
10:00 PM 50.0 ° F - 44.6 ° F 82% 30.06 pul 6.2 mi NO 2.3 mph - N/A   Nublado
10:30 PM 50.0 ° F - 46.4 ° F 87% 30.09 pul 6.2 mi Variable 2.3 mph - N/A   Muy nublado
11:00 PM 49 ° F - 45 ° F 79% 30.12 pul - NNE 2.3 mph - -  
11:00 PM 48.2 ° F - 44.6 ° F 87% 30.09 pul 6.2 mi NNE 1.2 mph - N/A   Muy nublado
11:30 PM 48.2 ° F - 44.6 ° F 87% 30.12 pul - NNE 3.5 mph - N/A   Despejado